Regional Weather Roundup
Issued by NWS

Home | Current Version | Previous Version | Text Only | Print | Product List | Glossary Off
Versions: 1 2 3 4 5 6 7 8 9 10 11 12 13 14 15 16 17 18 19 20 21 22 23 24 25 26 27 28 29 30 31 32 33 34 35 36 37 38 39 40 41 42 43 44 45 46 47 48 49 50

000
ASUS43 KFSD 081302
RWRSD

WEATHER ROUNDUP FOR SOUTH DAKOTA
NATIONAL WEATHER SERVICE SIOUX FALLS SD
700 AM CST THU DEC 08 2016

NOTE: "FAIR" INDICATES FEW OR NO CLOUDS BELOW 12,000 FEET WITH NO
SIGNIFICANT WEATHER AND/OR OBSTRUCTIONS TO VISIBILITY.


SDZ001>005-009-010-012>017-081400-
NORTHWEST AND NORTH CENTRAL SOUTH DAKOTA

CITY           SKY/WX    TMP DP  RH WIND       PRES   REMARKS
BUFFALO          N/A     -7 -12  79 NW6       30.46R WCI -20
FAITH            N/A     -5  -8  87 NW12      30.58R WCI -23
MOBRIDGE       CLOUDY     5  -3  69 NW22      30.54S WCI -16
$$

SDZ012>016-024>037-041>051-057-063-072>074-081400-
SOUTHWEST AND SOUTH CENTRAL SOUTH DAKOTA

CITY           SKY/WX    TMP DP  RH WIND       PRES   REMARKS
RAPID CTY ARPT CLEAR     -5 -11  75 N8        30.55R WCI -20
PIERRE         CLOUDY     7   0  73 NW23      30.58R WCI -14
CUSTER         CLEAR     -2 -14  56 N6        30.30R WCI -14
ELLSWORTH AFB  CLEAR      0  -8  67 N6        30.53R WCI -11
PHILIP         CLEAR     -2  -7  79 W9        30.64R WCI -18
PINE RIDGE     CLOUDY   -17 -21  82 E5        30.55R WCI -30
SPEARFISH      FAIR      -2 -11  65 W10       30.48R WCI -19
WINNER         CLOUDY     7  -2  66 NW20      30.59R WCI -13
$$

SDZ004>011-016>023-039-040-081400-
NORTHEAST SOUTH DAKOTA

CITY           SKY/WX    TMP DP  RH WIND       PRES   REMARKS
ABERDEEN       CLOUDY     9   1  70 NW21      30.53R WCI -11
WATERTOWN      CLOUDY     6   2  83 NW20      30.42R FOG     WCI -14
SISSETON         N/A     10   4  76 N21G30    30.43R WCI  -9
$$

SDZ017-020-022-023-036>040-048>070-081400-
SOUTHEAST SOUTH DAKOTA

CITY           SKY/WX    TMP DP  RH WIND       PRES   REMARKS
SIOUX FALLS    PTCLDY     8   3  80 NW17      30.47R WCI -10
HURON          CLEAR      5   1  83 NW15      30.55R WCI -13
MITCHELL       CLEAR      7   1  76 NW20      30.57R WCI -13
YANKTON        CLEAR      9   0  66 NW23      30.54R WCI -12
$$

ABBREVIATIONS USED IN REMARKS
   TC - TEMPERATURE IN CELSIUS
  WCI - WIND CHILL INDEX
   HX - HEAT INDEX
  VSB - VISIBILITY





USA.gov is the U.S. government's official web portal to all federal, state and local government web resources and services.